Location: Glass Lake
(42.6301°N, 73.5309°W)
Time: 05:46:30
(UTC+00:00)

Daily predictions for brighter satellites

Satellite Brightness Start Highest point End
(mag) Time Altitude Azimuth Time Altitude Azimuth Time Altitude Azimuth
Cosmos 1607 4.0 00:01:05 10° NW 00:07:18 73° WSW 00:08:21 61° S
Cosmos 1697 Rocket 3.0 00:07:53 10° SW 00:13:23 61° WNW 00:13:23 61° WNW
BREEZE-M DEB (TANK) 3.8 00:09:08 10° SW 00:15:42 53° SSW 00:15:42 53° SSW
BREEZE-M DEB (TANK) 4.0 00:19:21 10° WNW 00:23:52 76° NNE 00:23:52 76° NNE
Cosmos 2297 Rocket 4.4 00:43:23 10° NW 00:47:34 21° W 00:51:43 10° SSW
CZ-4C R/B 3.6 00:51:47 10° NW 00:59:00 55° WSW 00:59:10 55° WSW
CZ-3 R/B 4.3 06:50:45 10° WSW 07:40:02 53° S 07:50:49 10° ESE
Cosmos 1697 Rocket 3.5 09:07:46 46° SE 09:07:46 46° SE 09:11:43 10° SSE
USA 238 DEB 3.8 09:06:45 84° SW 09:06:45 84° SW 09:14:47 10° SSE
USA 238 3.8 09:06:49 85° SW 09:06:49 85° SW 09:14:54 10° SSE
Cosmos 1833 Rocket 4.2 09:40:09 22° N 09:40:09 22° N 09:42:22 10° NNE
Cosmos 2082 Rocket 3.1 09:34:05 10° S 09:39:26 48° ESE 09:44:49 10° NE
FengYun 1-2 T 4.3 09:34:14 10° NNE 09:39:55 77° ESE 09:45:34 10° S
Cosmos 1634 Rocket 3.9 09:41:04 62° WSW 09:41:04 62° WSW 09:46:42 10° S
Cosmos 1763 Rocket 4.1 09:45:09 43° N 09:45:09 43° N 09:48:46 10° NNE
Cosmos 1536 Rocket 4.1 09:40:17 10° S 09:44:38 58° E 09:48:59 10° NNE
NOSS 3-4 (A) 4.4 09:47:25 27° N 09:47:25 27° N 09:50:57 10° NNE
NOSS 3-4 (C) 4.4 09:47:33 27° N 09:47:33 27° N 09:51:07 10° NNE
SL-4 R/B 4.2 09:53:04 13° NNE 09:53:04 13° NNE 09:53:32 10° NE
Helios 1A Rocket 4.4 09:48:28 10° SE 09:51:20 27° ENE 09:52:32 22° NE
SKYMED 2 3.9 09:52:00 10° SSE 09:56:16 63° ENE 09:58:32 27° N
Cosmos 2098 Rocket 3.6 09:55:01 20° N 09:59:05 82° W 10:04:55 10° S
Cosmos 2279 Rocket 3.9 09:56:49 18° NNW 10:01:36 65° W 10:07:45 10° S
SL-8 R/B 3.5 10:01:43 68° WNW 10:02:18 84° SSW 10:07:04 10° ESE
Cosmos 2369 4.3 10:00:12 17° NNW 10:04:31 55° ENE 10:10:03 10° SE
Cosmos 990 Rocket 3.9 10:04:29 52° WNW 10:05:25 61° WSW 10:10:32 10° S
Cosmos 1980 Rocket 2.0 10:04:00 33° NNW 10:06:38 84° WSW 10:12:12 10° SSE
SL-24 R/B - RUBIN 2 3.5 10:06:39 48° NNW 10:07:48 75° NE 10:12:10 10° SE
Cosmos 2180 Rocket 4.4 10:02:38 10° N 10:08:54 80° W 10:15:13 10° S
BREEZE M DEB (TANK) 4.4 10:14:55 10° SSE 10:15:58 12° SE 10:17:09 10° E
Cosmos 967 Rocket 4.4 10:12:15 25° NW 10:16:14 84° WSW 10:22:41 10° SSE
Tiangong -2.0 10:16:27 72° SSE 10:16:27 72° SSE 10:19:36 10° E
PKM 3.3 10:16:37 67° SSW 10:16:37 67° SSW 10:19:07 10° SE
NOSS 2-1 (D) 4.5 10:18:46 23° N 10:20:35 39° NE 10:24:57 10° ESE
Cosmos 2333 Rocket 4.2 10:16:27 10° N 10:21:09 25° NE 10:25:48 10° ESE
Cosmos 1346 Rocket 2.5 10:21:51 10° S 10:25:33 89° WNW 10:29:16 10° N
Cosmos 540 Rocket 4.1 10:25:56 33° WNW 10:25:56 33° WNW 10:30:29 10° N
USA 59 Rocket 0.6 10:24:05 24° NNW 10:26:03 49° NE 10:30:43 10° SE
Cosmos 1606 Rocket 3.5 10:24:51 10° N 10:29:19 90° WNW 10:33:44 10° S
COSMO-SKYMED 1 2.3 10:25:34 10° SSE 10:29:40 83° WSW 10:33:22 13° NNW
Cosmos 2026 Rocket 4.3 10:28:08 10° S 10:34:06 67° E 10:40:08 10° NNE
Cosmos 2360 Rocket 4.2 10:34:20 10° N 10:38:44 23° NE 10:43:06 10° ESE
Meteor 2-3 Rocket 3.8 10:35:42 10° S 10:41:28 87° E 10:47:13 10° N
Cosmos 841 Rocket 3.4 10:37:19 10° SSW 10:42:31 77° WNW 10:47:48 10° NNE
COSMOS 2455 2.8 10:38:05 14° NNW 10:43:28 88° WSW 10:49:29 10° SSE
NOSS 2-1 (C) 3.7 10:42:44 19° NNW 10:45:18 63° NE 10:50:04 10° SE
IRS-1D 4.0 10:44:25 10° N 10:48:57 36° WNW 10:53:32 10° SW
Cosmos 1484 Rocket 2.3 10:45:31 10° N 10:48:58 85° WNW 10:52:21 10° SSW
Cosmos 1697 Rocket 4.2 10:49:33 16° W 10:49:33 16° W 10:52:40 10° SW
NOAA 12 4.4 10:46:39 10° N 10:51:34 41° WNW 10:56:27 10° SW
Cosmos 1092 Rocket 4.1 10:47:28 10° S 10:53:47 84° E 11:00:04 10° N
Cosmos 1933 3.8 10:54:54 15° NNW 10:57:32 34° W 11:00:59 10° SSW
Cosmos 1726 Rocket 3.5 10:53:18 10° NNW 10:57:39 60° W 11:01:50 10° S
Cosmos 1898 Rocket 3.6 10:53:48 10° NNW 10:58:56 59° WSW 11:04:04 10° S
Cosmos 2322 Rocket 3.6 10:53:47 10° N 10:58:58 35° NE 11:04:07 10° ESE
Cosmos 220 Rocket 3.8 10:55:01 10° SSW 10:58:58 57° WNW 11:03:01 10° NNE
Cosmos 2219 Rocket 4.3 10:55:16 10° N 10:59:26 20° NE 11:03:34 10° E
SWAS 4.3 10:56:28 10° NNW 11:00:29 83° ENE 11:04:30 10° SSE
Nadezhda 4 Rocket 4.3 10:56:06 10° SW 11:02:02 42° WNW 11:08:00 10° N
Cosmos 2237 4.2 10:56:34 10° NNW 11:02:17 77° WSW 11:07:57 10° SSE
COSMOS 2406 3.2 10:58:18 10° SSW 11:03:56 68° WNW 11:09:36 10° NNE
SMAP 3.6 11:04:44 10° NNE 11:09:23 65° ESE 11:14:00 10° S
CZ-2D R/B 4.1 11:06:39 10° NNE 11:09:42 42° E 11:12:44 10° S
Cosmos 1892 Rocket 3.7 11:06:33 10° SSW 11:10:45 49° WNW 11:15:01 10° N
Meteor 2-2 Rocket 4.3 11:10:25 10° N 11:16:07 89° W 11:21:53 10° S
Landsat 7 4.4 11:11:40 10° NNE 11:16:17 61° E 11:20:52 10° S
NOSS 3-1 (C) 4.2 11:10:28 10° NW 11:17:51 81° WSW 11:26:57 10° SSE
Cosmos 405 Rocket 3.6 11:16:48 10° S 11:19:54 44° E 11:23:02 10° NNE
CZ-3 R/B 4.2 11:12:28 10° W 11:19:55 15° SW 11:24:26 10° SSW
ARIANE 5 R/B 3.2 11:18:23 10° NNE 11:23:34 63° ESE 11:28:43 10° S
Cosmos 2082 Rocket 3.1 11:18:59 10° WSW 11:23:44 27° NW 11:28:28 10° N
SL-16 R/B 2.3 11:18:06 10° NNW 11:23:49 89° E 11:29:29 10° SSE
Helios 1A Rocket 4.1 11:21:52 10° SW 11:23:58 16° W 11:26:05 10° NW
MOS 1 Rocket 4.3 11:20:33 10° NNE 11:25:52 59° E 11:31:06 10° S
BREEZE-M DEB (TANK) 3.0 11:23:10 11° WNW 11:26:11 71° NNE 11:34:31 10° ESE
IRIDIUM 114 4.4 11:21:43 10° S 11:26:56 90° W 11:32:11 10° N
Cosmos 1937 Rocket 3.9 11:23:14 10° NNW 11:28:04 43° WSW 11:32:53 10° S
SL-4 R/B 3.4 11:27:09 10° NW 11:29:23 17° N 11:31:34 10° NE
IGS 5A 4.0 11:28:53 10° N 11:32:31 34° WNW 11:36:07 10° SW
IRIDIUM 103 4.3 11:30:55 10° S 11:36:07 75° W 11:41:22 10° N
Cosmos 2221 3.7 11:33:25 10° N 11:37:22 42° ENE 11:41:17 10° SSE
Cosmos 2058 Rocket 3.5 11:36:20 10° NNW 11:40:33 43° W 11:44:43 10° SSW
